,,PA_Meas_PMT16A,,PR_Meas_QMR101_102,,RH_Meas_QMH101,,SR_Meas_QMS101,,TA_Meas_QMH101,,GenWind,,GenWind,
time,status,PA,status,PR,status,RH,status,SR,status,TA,status,DirAvg,status,SpdAvg,
2014-09-03, 00:00:04,VALID,918.59,VALID,0,VALID,96.4819,VALID,0,VALID,18.5135,VALID,133,VALID,0.432813,
2014-09-03, 00:01:04,VALID,918.518,VALID,0,VALID,96.421,VALID,0,VALID,18.533,VALID,128,VALID,1.27422,
2014-09-03, 00:02:04,VALID,918.52,VALID,0,VALID,96.3371,VALID,0.107441,VALID,18.5135,VALID,134,VALID,0.242578,
2014-09-03, 00:03:04,VALID,918.528,VALID,0,VALID,96.2533,VALID,0,VALID,18.5344,VALID,144,VALID,0.437109,
2014-09-03, 00:04:04,VALID,918.536,VALID,0,VALID,96.2075,VALID,0,VALID,18.5344,VALID,149,VALID,0.924219,
2014-09-03, 00:05:04,VALID,918.574,VALID,0,VALID,96.1541,VALID,0,VALID,18.5149,VALID,140,VALID,0.824609,
2014-09-03, 00:06:04,VALID,918.561,VALID,0,VALID,96.1008,VALID,0,VALID,18.5344,VALID,147,VALID,1.00586,
2014-09-03, 00:07:04,VALID,918.549,VALID,0,VALID,96.0627,VALID,0,VALID,18.5344,VALID,143,VALID,0.751562,
2014-09-03, 00:08:04,VALID,918.565,VALID,0,VALID,96.0245,VALID,0,VALID,18.5344,VALID,140,VALID,0.742578,
2014-09-03, 00:09:04,VALID,918.612,VALID,0,VALID,95.9331,VALID,0,VALID,18.4759,VALID,142,VALID,0.538672,
2014-09-03, 00:10:04,VALID,918.589,VALID,0,VALID,95.9559,VALID,0,VALID,18.4369,VALID,142,VALID,1.06406,
2014-09-03, 00:11:04,VALID,918.583,VALID,0,VALID,95.9864,VALID,0,VALID,18.4188,VALID,139,VALID,0.883984,
2014-09-03, 00:12:04,VALID,918.593,VALID,0,VALID,96.055,VALID,0,VALID,18.3784,VALID,141,VALID,0.874609,
2014-09-03, 00:13:04,VALID,918.595,VALID,0,VALID,96.1008,VALID,0,VALID,18.3394,VALID,146,VALID,1.10859,
2014-09-03, 00:14:04,VALID,918.626,VALID,0,VALID,96.1541,VALID,0,VALID,18.3589,VALID,138,VALID,0.00117188,
2014-09-03, 00:15:04,VALID,918.654,VALID,0,VALID,96.1999,VALID,0,VALID,18.3979,VALID,138,VALID,0.0078125,
2014-09-03, 00:16:04,VALID,918.655,VALID,0,VALID,96.2456,VALID,0,VALID,18.3979,VALID,136,VALID,0.0117188,
2014-09-03, 00:17:04,VALID,918.685,VALID,0,VALID,96.238,VALID,0,VALID,18.3979,VALID,136,VALID,0,
2014-09-03, 00:18:04,VALID,918.675,VALID,0,VALID,96.238,VALID,0,VALID,18.4174,VALID,150,VALID,0,
2014-09-03, 00:19:04,VALID,918.723,VALID,0,VALID,96.2609,VALID,0,VALID,18.4759,VALID,136,VALID,0,
2014-09-03, 00:20:04,VALID,918.687,VALID,0,VALID,96.238,VALID,0,VALID,18.4954,VALID,139,VALID,0,
2014-09-03, 00:21:04,VALID,918.688,VALID,0,VALID,96.2075,VALID,0,VALID,18.5344,VALID,148,VALID,0,
2014-09-03, 00:22:04,VALID,918.682,VALID,0,VALID,96.1618,VALID,0,VALID,18.5539,VALID,139,VALID,0,
2014-09-03, 00:23:04,VALID,918.681,VALID,0,VALID,96.0703,VALID,0,VALID,18.5539,VALID,147,VALID,0,
2014-09-03, 00:24:04,VALID,918.674,VALID,0,VALID,95.9864,VALID,0,VALID,18.5344,VALID,132,VALID,0,
2014-09-03, 00:25:04,VALID,918.642,VALID,0,VALID,95.895,VALID,0,VALID,18.5149,VALID,130,VALID,0,
2014-09-03, 00:26:04,VALID,918.659,VALID,0,VALID,95.8645,VALID,0,VALID,18.5344,VALID,130,VALID,0,
2014-09-03, 00:27:04,VALID,918.645,VALID,0,VALID,95.8111,VALID,0,VALID,18.5539,VALID,124,VALID,0,
2014-09-03, 00:28:04,VALID,918.674,VALID,0,VALID,95.7196,VALID,0,VALID,18.5344,VALID,131,VALID,0,
2014-09-03, 00:29:04,VALID,918.687,VALID,0,VALID,95.6434,VALID,0,VALID,18.5344,VALID,122,VALID,0,
2014-09-03, 00:30:04,VALID,918.675,VALID,0,VALID,95.5595,VALID,0,VALID,18.5149,VALID,121,VALID,0,
2014-09-03, 00:31:04,VALID,918.641,VALID,0,VALID,95.5519,VALID,0,VALID,18.5149,VALID,121,VALID,0,
2014-09-03, 00:32:04,VALID,918.609,VALID,0,VALID,95.4985,VALID,0.107441,VALID,18.4954,VALID,121,VALID,0,
2014-09-03, 00:33:04,VALID,918.621,VALID,0,VALID,95.4147,VALID,0.107441,VALID,18.4369,VALID,121,VALID,0,
2014-09-03, 00:34:04,VALID,918.601,VALID,0,VALID,95.4452,VALID,0,VALID,18.4369,VALID,121,VALID,0,
2014-09-03, 00:35:04,VALID,918.639,VALID,0,VALID,95.5062,VALID,0,VALID,18.3979,VALID,121,VALID,0,
2014-09-03, 00:36:04,VALID,918.637,VALID,0,VALID,95.59,VALID,0,VALID,18.3979,VALID,121,VALID,0,
2014-09-03, 00:37:04,VALID,918.654,VALID,0,VALID,95.5671,VALID,0,VALID,18.3589,VALID,121,VALID,0,
2014-09-03, 00:38:04,VALID,918.624,VALID,0,VALID,95.6129,VALID,0,VALID,18.3589,VALID,121,VALID,0,
2014-09-03, 00:39:04,VALID,918.605,VALID,0,VALID,95.7044,VALID,0,VALID,18.3589,VALID,121,VALID,0,
2014-09-03, 00:40:04,VALID,918.587,VALID,0,VALID,95.7577,VALID,0,VALID,18.3394,VALID,121,VALID,0,
2014-09-03, 00:41:04,VALID,918.578,VALID,0,VALID,95.7654,VALID,0,VALID,18.3394,VALID,121,VALID,0,
2014-09-03, 00:42:04,VALID,918.563,VALID,0,VALID,95.895,VALID,0,VALID,18.3784,VALID,125,VALID,0,
2014-09-03, 00:43:04,VALID,918.573,VALID,0,VALID,95.895,VALID,0,VALID,18.3784,VALID,123,VALID,0,
2014-09-03, 00:44:04,VALID,918.537,VALID,0,VALID,95.9026,VALID,0,VALID,18.3979,VALID,127,VALID,0,
2014-09-03, 00:45:04,VALID,918.529,VALID,0,VALID,95.8568,VALID,0,VALID,18.3784,VALID,140,VALID,0,
2014-09-03, 00:46:04,VALID,918.538,VALID,0,VALID,95.8568,VALID,0,VALID,18.3784,VALID,132,VALID,0,
2014-09-03, 00:47:04,VALID,918.547,VALID,0,VALID,95.8263,VALID,0,VALID,18.3589,VALID,132,VALID,0,
2014-09-03, 00:48:04,VALID,918.55,VALID,0,VALID,95.8263,VALID,0,VALID,18.3784,VALID,135,VALID,0,
2014-09-03, 00:49:04,VALID,918.538,VALID,0,VALID,95.8873,VALID,0,VALID,18.3979,VALID,140,VALID,0,
2014-09-03, 00:50:04,VALID,918.523,VALID,0,VALID,95.8568,VALID,0,VALID,18.3979,VALID,142,VALID,0,
2014-09-03, 00:51:04,VALID,918.545,VALID,0,VALID,95.834,VALID,0,VALID,18.3979,VALID,133,VALID,0,
2014-09-03, 00:52:04,VALID,918.514,VALID,0,VALID,95.7806,VALID,0,VALID,18.3979,VALID,125,VALID,0,
2014-09-03, 00:53:05,VALID,918.501,VALID,0,VALID,95.6967,VALID,0,VALID,18.3784,VALID,124,VALID,0,
2014-09-03, 00:54:05,VALID,918.476,VALID,0,VALID,95.7196,VALID,0,VALID,18.4174,VALID,122,VALID,0,
2014-09-03, 00:55:05,VALID,918.46,VALID,0,VALID,95.7044,VALID,0,VALID,18.3979,VALID,123,VALID,0,
2014-09-03, 00:56:05,VALID,918.435,VALID,0,VALID,95.6662,VALID,0.107441,VALID,18.4174,VALID,120,VALID,0,
2014-09-03, 00:57:05,VALID,918.393,VALID,0,VALID,95.6053,VALID,0,VALID,18.4188,VALID,112,VALID,0,
2014-09-03, 00:58:05,VALID,918.429,VALID,0,VALID,95.5443,VALID,0,VALID,18.3784,VALID,120,VALID,0,
2014-09-03, 00:59:05,VALID,918.426,VALID,0,VALID,95.5824,VALID,0,VALID,18.3798,VALID,132,VALID,0,
2014-09-03, 01:00:05,VALID,918.437,VALID,0,VALID,95.5595,VALID,0,VALID,18.3589,VALID,135,VALID,0,
2014-09-03, 01:01:05,VALID,918.429,VALID,0,VALID,95.5748,VALID,0,VALID,18.3784,VALID,141,VALID,0,
2014-09-03, 01:02:05,VALID,918.427,VALID,0,VALID,95.6281,VALID,0,VALID,18.3979,VALID,148,VALID,0.229687,
2014-09-03, 01:03:05,VALID,918.394,VALID,0,VALID,95.6357,VALID,0,VALID,18.377,VALID,145,VALID,0,
2014-09-03, 01:04:05,VALID,918.375,VALID,0,VALID,95.6434,VALID,0,VALID,18.3784,VALID,157,VALID,0,
2014-09-03, 01:05:05,VALID,918.371,VALID,0,VALID,95.651,VALID,0,VALID,18.3394,VALID,157,VALID,0,
2014-09-03, 01:06:05,VALID,918.317,VALID,0,VALID,95.651,VALID,0,VALID,18.3199,VALID,157,VALID,0,
2014-09-03, 01:07:05,VALID,918.325,VALID,0,VALID,95.6434,VALID,0,VALID,18.2615,VALID,157,VALID,0,
2014-09-03, 01:08:05,VALID,918.332,VALID,0,VALID,95.7044,VALID,0,VALID,18.2211,VALID,157,VALID,0,
2014-09-03, 01:09:05,VALID,918.279,VALID,0,VALID,95.7044,VALID,0,VALID,18.203,VALID,157,VALID,0,
2014-09-03, 01:10:05,VALID,918.278,VALID,0,VALID,95.712,VALID,0,VALID,18.164,VALID,157,VALID,0,
2014-09-03, 01:11:05,VALID,918.243,VALID,0,VALID,95.7806,VALID,0,VALID,18.1445,VALID,153,VALID,0,
2014-09-03, 01:12:05,VALID,918.249,VALID,0,VALID,95.8416,VALID,0,VALID,18.1445,VALID,150,VALID,0,
2014-09-03, 01:13:05,VALID,918.217,VALID,0,VALID,95.9331,VALID,0,VALID,18.125,VALID,148,VALID,0,
2014-09-03, 01:14:05,VALID,918.186,VALID,0,VALID,96.0093,VALID,0,VALID,18.125,VALID,148,VALID,0,
2014-09-03, 01:15:05,VALID,918.156,VALID,0,VALID,96.0474,VALID,0,VALID,18.1055,VALID,157,VALID,0,
2014-09-03, 01:16:05,VALID,918.2,VALID,0,VALID,96.055,VALID,0,VALID,18.0665,VALID,156,VALID,0,
2014-09-03, 01:17:05,VALID,918.174,VALID,0,VALID,96.1008,VALID,0,VALID,18.047,VALID,135,VALID,0,
2014-09-03, 01:18:05,VALID,918.14,VALID,0,VALID,96.0855,VALID,0,VALID,18.008,VALID,113,VALID,0,
2014-09-03, 01:19:05,VALID,918.171,VALID,0,VALID,96.116,VALID,0,VALID,17.9886,VALID,112,VALID,0,
2014-09-03, 01:20:05,VALID,918.162,VALID,0,VALID,96.116,VALID,0,VALID,17.9496,VALID,113,VALID,0,
2014-09-03, 01:21:05,VALID,918.16,VALID,0,VALID,96.1313,VALID,0,VALID,17.9106,VALID,112,VALID,0,
2014-09-03, 01:22:05,VALID,918.145,VALID,0,VALID,96.1923,VALID,0,VALID,17.9106,VALID,112,VALID,0,
2014-09-03, 01:23:05,VALID,918.08,VALID,0,VALID,96.2456,VALID,0,VALID,17.9301,VALID,113,VALID,0,
2014-09-03, 01:24:05,VALID,918.109,VALID,0,VALID,96.2761,VALID,0,VALID,17.9301,VALID,113,VALID,0,
2014-09-03, 01:25:05,VALID,918.126,VALID,0,VALID,96.3371,VALID,0,VALID,17.9496,VALID,130,VALID,0,
2014-09-03, 01:26:05,VALID,918.096,VALID,0,VALID,96.3752,VALID,0,VALID,17.9691,VALID,136,VALID,0,
2014-09-03, 01:27:05,VALID,918.083,VALID,0,VALID,96.4057,VALID,0,VALID,17.9899,VALID,136,VALID,0,
2014-09-03, 01:28:05,VALID,918.053,VALID,0,VALID,96.3981,VALID,0,VALID,17.9886,VALID,136,VALID,0,
2014-09-03, 01:29:05,VALID,918.068,VALID,0,VALID,96.4057,VALID,0,VALID,17.9886,VALID,136,VALID,0,
2014-09-03, 01:30:05,VALID,918.027,VALID,0,VALID,96.3905,VALID,0,VALID,17.9886,VALID,143,VALID,0,
2014-09-03, 01:31:05,VALID,918.049,VALID,0,VALID,96.4057,VALID,0,VALID,17.9886,VALID,143,VALID,0,
2014-09-03, 01:32:05,VALID,918.035,VALID,0,VALID,96.3829,VALID,0,VALID,18.0094,VALID,143,VALID,0,
2014-09-03, 01:33:05,VALID,918.069,VALID,0,VALID,96.3981,VALID,0,VALID,17.9886,VALID,149,VALID,0,
2014-09-03, 01:34:05,VALID,918.046,VALID,0,VALID,96.3752,VALID,0,VALID,18.0094,VALID,149,VALID,0,
2014-09-03, 01:35:05,VALID,918.029,VALID,0,VALID,96.3447,VALID,0,VALID,17.9886,VALID,149,VALID,0,
2014-09-03, 01:36:05,VALID,918.021,VALID,0,VALID,96.2685,VALID,0,VALID,17.9496,VALID,149,VALID,0,
2014-09-03, 01:37:05,VALID,918.011,VALID,0,VALID,96.2228,VALID,0,VALID,17.9314,VALID,149,VALID,0,
2014-09-03, 01:38:05,VALID,918.017,VALID,0,VALID,96.1923,VALID,0,VALID,17.8716,VALID,149,VALID,0,
2014-09-03, 01:39:05,VALID,918.019,VALID,0,VALID,96.1084,VALID,0,VALID,17.8326,VALID,149,VALID,0,
2014-09-03, 01:40:05,VALID,918.037,VALID,0,VALID,96.1618,VALID,0,VALID,17.873,VALID,144,VALID,0,
2014-09-03, 01:41:05,VALID,918.061,VALID,0,VALID,96.1923,VALID,0,VALID,17.8521,VALID,138,VALID,0,
2014-09-03, 01:42:05,VALID,918.067,VALID,0,VALID,96.2685,VALID,0,VALID,17.8911,VALID,136,VALID,0,
2014-09-03, 01:43:05,VALID,918.096,VALID,0,VALID,96.2837,VALID,0,VALID,17.9301,VALID,140,VALID,0,
2014-09-03, 01:44:05,VALID,918.105,VALID,0,VALID,96.3371,VALID,0,VALID,17.9496,VALID,128,VALID,0,
2014-09-03, 01:45:05,VALID,918.096,VALID,0,VALID,96.3142,VALID,0,VALID,17.9691,VALID,134,VALID,0,
2014-09-03, 01:46:05,VALID,918.09,VALID,0,VALID,96.2837,VALID,0,VALID,17.9899,VALID,121,VALID,0,
2014-09-03, 01:47:05,VALID,918.084,VALID,0,VALID,96.2837,VALID,0,VALID,18.0289,VALID,145,VALID,0.148438,
2014-09-03, 01:48:05,VALID,918.073,VALID,0,VALID,96.2837,VALID,0,VALID,18.0275,VALID,133,VALID,0,
2014-09-03, 01:49:05,VALID,918.07,VALID,0,VALID,96.2761,VALID,0,VALID,18.1069,VALID,141,VALID,0.220703,
2014-09-03, 01:50:05,VALID,918.051,VALID,0,VALID,96.2609,VALID,0,VALID,18.1055,VALID,130,VALID,0.789453,
2014-09-03, 01:51:05,VALID,918.035,VALID,0,VALID,96.2228,VALID,0,VALID,18.1459,VALID,124,VALID,0.150781,
2014-09-03, 01:52:05,VALID,918.048,VALID,0,VALID,96.1541,VALID,0,VALID,18.1055,VALID,113,VALID,0,
2014-09-03, 01:53:05,VALID,918.004,VALID,0,VALID,96.1313,VALID,0,VALID,18.125,VALID,110,VALID,0.513672,
2014-09-03, 01:54:05,VALID,918.025,VALID,0,VALID,96.1389,VALID,0,VALID,18.1459,VALID,126,VALID,0.632422,
2014-09-03, 01:55:05,VALID,918.023,VALID,0,VALID,96.0779,VALID,0,VALID,18.125,VALID,105,VALID,0.277344,
2014-09-03, 01:56:05,VALID,918.001,VALID,0,VALID,95.9788,VALID,0,VALID,18.1055,VALID,111,VALID,0,
2014-09-03, 01:57:05,VALID,918.013,VALID,0,VALID,95.9941,VALID,0,VALID,18.1459,VALID,119,VALID,1.00508,
2014-09-03, 01:58:05,VALID,917.979,VALID,0,VALID,96.0093,VALID,0,VALID,18.164,VALID,134,VALID,0.810938,
2014-09-03, 01:59:05,VALID,917.964,VALID,0,VALID,96.0322,VALID,0,VALID,18.203,VALID,117,VALID,1.34883,
2014-09-03, 02:00:05,VALID,917.968,VALID,0,VALID,96.0169,VALID,0,VALID,18.242,VALID,130,VALID,1.41602,
2014-09-03, 02:01:05,VALID,917.979,VALID,0,VALID,95.9864,VALID,0,VALID,18.2809,VALID,134,VALID,1.1793,
2014-09-03, 02:02:05,VALID,917.988,VALID,0,VALID,95.9407,VALID,0,VALID,18.3199,VALID,125,VALID,0.748438,
2014-09-03, 02:03:05,VALID,917.975,VALID,0,VALID,95.8568,VALID,0,VALID,18.3784,VALID,143,VALID,1.35156,
2014-09-03, 02:04:05,VALID,917.998,VALID,0,VALID,95.7654,VALID,0,VALID,18.4174,VALID,136,VALID,1.52305,
2014-09-03, 02:05:05,VALID,918.003,VALID,0,VALID,95.651,VALID,0,VALID,18.4369,VALID,143,VALID,1.13203,
2014-09-03, 02:06:05,VALID,918.011,VALID,0,VALID,95.5214,VALID,0,VALID,18.4369,VALID,135,VALID,0.753125,
2014-09-03, 02:07:05,VALID,918.057,VALID,0,VALID,95.3384,VALID,0,VALID,18.4578,VALID,140,VALID,0.622266,
2014-09-03, 02:08:05,VALID,918.045,VALID,0,VALID,95.247,VALID,0,VALID,18.4369,VALID,139,VALID,0.164453,
2014-09-03, 02:09:05,VALID,918.049,VALID,0,VALID,95.2393,VALID,0,VALID,18.4759,VALID,144,VALID,1.66797,
2014-09-03, 02:10:05,VALID,918.072,VALID,0,VALID,95.1402,VALID,0,VALID,18.5539,VALID,147,VALID,1.78516,
2014-09-03, 02:11:05,VALID,918.075,VALID,0,VALID,94.8429,VALID,0,VALID,18.5943,VALID,142,VALID,1.45977,
2014-09-03, 02:12:05,VALID,918.079,VALID,0,VALID,94.4999,VALID,0,VALID,18.6124,VALID,130,VALID,0.876562,
2014-09-03, 02:13:05,VALID,918.061,VALID,0,VALID,94.1416,VALID,0,VALID,18.6723,VALID,141,VALID,0,
2014-09-03, 02:14:05,VALID,918.061,VALID,0,VALID,93.7528,VALID,0,VALID,18.6723,VALID,153,VALID,0.00585938,
2014-09-03, 02:15:05,VALID,918.088,VALID,0,VALID,93.5393,VALID,0,VALID,18.6513,VALID,123,VALID,0,
2014-09-03, 02:16:05,VALID,918.042,VALID,0,VALID,93.3335,VALID,0,VALID,18.6723,VALID,119,VALID,0,
2014-09-03, 02:17:05,VALID,918.064,VALID,0,VALID,93.1963,VALID,0,VALID,18.6319,VALID,119,VALID,0,
2014-09-03, 02:18:05,VALID,918.053,VALID,0,VALID,93.1353,VALID,0,VALID,18.6319,VALID,152,VALID,0,
2014-09-03, 02:19:05,VALID,918.008,VALID,0,VALID,93.1505,VALID,0,VALID,18.6109,VALID,154,VALID,0,
2014-09-03, 02:20:05,VALID,917.991,VALID,0,VALID,93.1505,VALID,0,VALID,18.6138,VALID,154,VALID,0,
2014-09-03, 02:21:05,VALID,918.003,VALID,0,VALID,93.181,VALID,0,VALID,18.6138,VALID,157,VALID,0,
2014-09-03, 02:22:05,VALID,917.971,VALID,0,VALID,93.2725,VALID,0,VALID,18.5929,VALID,158,VALID,0,
2014-09-03, 02:23:05,VALID,917.952,VALID,0,VALID,93.242,VALID,0,VALID,18.5539,VALID,158,VALID,0,
2014-09-03, 02:24:05,VALID,917.954,VALID,0,VALID,93.2496,VALID,0,VALID,18.5344,VALID,158,VALID,0,
2014-09-03, 02:25:05,VALID,917.972,VALID,0,VALID,93.2496,VALID,0,VALID,18.5149,VALID,158,VALID,0,
2014-09-03, 02:26:05,VALID,917.983,VALID,0,VALID,93.2572,VALID,0,VALID,18.4954,VALID,158,VALID,0,
2014-09-03, 02:27:05,VALID,917.996,VALID,0,VALID,92.9599,VALID,0,VALID,18.4174,VALID,158,VALID,0,
2014-09-03, 02:28:05,VALID,918.003,VALID,0,VALID,93.0743,VALID,0,VALID,18.3589,VALID,137,VALID,0,
2014-09-03, 02:29:05,VALID,917.971,VALID,0,VALID,93.4478,VALID,0,VALID,18.3199,VALID,116,VALID,0,
2014-09-03, 02:30:05,VALID,917.991,VALID,0,VALID,93.6613,VALID,0,VALID,18.2809,VALID,115,VALID,0,
2014-09-03, 02:31:05,VALID,917.975,VALID,0,VALID,93.6842,VALID,0,VALID,18.2433,VALID,116,VALID,0,
2014-09-03, 02:32:05,VALID,917.951,VALID,0,VALID,94.4313,VALID,0,VALID,18.242,VALID,116,VALID,0,
2014-09-03, 02:33:05,VALID,917.947,VALID,0,VALID,94.5837,VALID,0,VALID,18.2615,VALID,116,VALID,0,
2014-09-03, 02:34:05,VALID,917.956,VALID,0,VALID,94.6371,VALID,0,VALID,18.2615,VALID,116,VALID,0,
2014-09-03, 02:35:05,VALID,917.962,VALID,0,VALID,94.7514,VALID,0,VALID,18.3004,VALID,116,VALID,0,
2014-09-03, 02:36:05,VALID,917.939,VALID,0,VALID,94.8048,VALID,0,VALID,18.3394,VALID,116,VALID,0,
2014-09-03, 02:37:05,VALID,917.953,VALID,0,VALID,94.7514,VALID,0,VALID,18.3603,VALID,133,VALID,0,
2014-09-03, 02:38:05,VALID,917.949,VALID,0,VALID,94.4694,VALID,0,VALID,18.3394,VALID,140,VALID,0,
2014-09-03, 02:39:05,VALID,917.938,VALID,0,VALID,94.4084,VALID,0,VALID,18.3199,VALID,141,VALID,0,
2014-09-03, 02:40:05,VALID,917.905,VALID,0,VALID,94.4846,VALID,0,VALID,18.3394,VALID,145,VALID,0.449609,
2014-09-03, 02:41:05,VALID,917.888,VALID,0,VALID,94.4008,VALID,0,VALID,18.3394,VALID,142,VALID,0.363672,
2014-09-03, 02:42:05,VALID,917.888,VALID,0,VALID,94.2559,VALID,0,VALID,18.3784,VALID,139,VALID,0.956641,
2014-09-03, 02:43:05,VALID,917.891,VALID,0,VALID,94.0653,VALID,0,VALID,18.3784,VALID,144,VALID,0.821484,
2014-09-03, 02:44:05,VALID,917.897,VALID,0,VALID,93.9281,VALID,0,VALID,18.4188,VALID,141,VALID,0.639844,
2014-09-03, 02:45:05,VALID,917.879,VALID,0,VALID,93.8061,VALID,0,VALID,18.3798,VALID,138,VALID,0.231641,
2014-09-03, 02:46:05,VALID,917.878,VALID,0,VALID,93.7147,VALID,0,VALID,18.3784,VALID,140,VALID,0.390625,
2014-09-03, 02:47:05,VALID,917.877,VALID,0,VALID,93.6918,VALID,0,VALID,18.3603,VALID,138,VALID,0.917188,
2014-09-03, 02:48:05,VALID,917.86,VALID,0,VALID,93.707,VALID,0,VALID,18.3394,VALID,131,VALID,1.13516,
2014-09-03, 02:49:05,VALID,917.86,VALID,0,VALID,93.7147,VALID,0,VALID,18.3408,VALID,141,VALID,0.60625,
2014-09-03, 02:50:05,VALID,917.865,VALID,0,VALID,93.7223,VALID,0,VALID,18.3004,VALID,138,VALID,0.494531,
2014-09-03, 02:51:05,VALID,917.847,VALID,0,VALID,93.7223,VALID,0,VALID,18.3004,VALID,145,VALID,0.585156,
2014-09-03, 02:52:05,VALID,917.808,VALID,0,VALID,93.6994,VALID,0,VALID,18.3213,VALID,141,VALID,0.589063,
2014-09-03, 02:53:05,VALID,917.847,VALID,0,VALID,93.6765,VALID,0,VALID,18.2615,VALID,134,VALID,0.424219,
2014-09-03, 02:54:05,VALID,917.822,VALID,0,VALID,93.6613,VALID,0,VALID,18.242,VALID,140,VALID,0.0203125,
2014-09-03, 02:55:05,VALID,917.81,VALID,0,VALID,93.7375,VALID,0,VALID,18.2225,VALID,143,VALID,0.49375,
2014-09-03, 02:56:05,VALID,917.811,VALID,0,VALID,93.7833,VALID,0,VALID,18.2433,VALID,147,VALID,0.585156,
2014-09-03, 02:57:05,VALID,917.797,VALID,0,VALID,93.7604,VALID,0,VALID,18.203,VALID,146,VALID,0.110156,
2014-09-03, 02:58:05,VALID,917.801,VALID,0,VALID,93.7223,VALID,0,VALID,18.164,VALID,146,VALID,0.587891,
2014-09-03, 02:59:05,VALID,917.803,VALID,0,VALID,93.8595,VALID,0,VALID,18.1445,VALID,146,VALID,0,
2014-09-03, 03:00:05,VALID,917.769,VALID,0,VALID,93.9891,VALID,0,VALID,18.1459,VALID,150,VALID,0.146094,
2014-09-03, 03:01:05,VALID,917.781,VALID,0,VALID,94.0501,VALID,0,VALID,18.1055,VALID,149,VALID,0,
2014-09-03, 03:02:05,VALID,917.807,VALID,0,VALID,94.1797,VALID,0,VALID,18.086,VALID,141,VALID,0.0976563,
2014-09-03, 03:03:05,VALID,917.77,VALID,0,VALID,94.294,VALID,0,VALID,18.086,VALID,147,VALID,0.00585938,
2014-09-03, 03:04:05,VALID,917.803,VALID,0,VALID,94.4313,VALID,0,VALID,18.086,VALID,141,VALID,0.639844,
2014-09-03, 03:05:05,VALID,917.78,VALID,0,VALID,94.5227,VALID,0,VALID,18.0874,VALID,149,VALID,0.126953,
2014-09-03, 03:06:05,VALID,917.763,VALID,0,VALID,94.66,VALID,0,VALID,18.047,VALID,148,VALID,0.541016,
2014-09-03, 03:07:05,VALID,917.76,VALID,0,VALID,94.9268,VALID,0,VALID,18.047,VALID,146,VALID,0.832812,
2014-09-03, 03:08:05,VALID,917.751,VALID,0,VALID,95.0716,VALID,0,VALID,18.0275,VALID,157,VALID,0.894531,
2014-09-03, 03:09:05,VALID,917.767,VALID,0,VALID,95.1479,VALID,0,VALID,18.0289,VALID,156,VALID,0.980859,
2014-09-03, 03:10:05,VALID,917.781,VALID,0,VALID,95.247,VALID,0,VALID,18.008,VALID,155,VALID,0.965625,
2014-09-03, 03:11:05,VALID,917.745,VALID,0,VALID,95.2546,VALID,0,VALID,17.9886,VALID,171,VALID,0.413281,
2014-09-03, 03:12:05,VALID,917.785,VALID,0,VALID,95.2698,VALID,0,VALID,17.9496,VALID,167,VALID,0.351172,
2014-09-03, 03:13:05,VALID,917.803,VALID,0,VALID,95.3689,VALID,0,VALID,17.9496,VALID,169,VALID,1.15,
2014-09-03, 03:14:05,VALID,917.823,VALID,0,VALID,95.4223,VALID,0,VALID,17.9509,VALID,164,VALID,0.485547,
2014-09-03, 03:15:05,VALID,917.802,VALID,0,VALID,95.4833,VALID,0,VALID,17.9106,VALID,167,VALID,0.328125,
2014-09-03, 03:16:05,VALID,917.818,VALID,0,VALID,95.5367,VALID,0,VALID,17.9314,VALID,166,VALID,0,
2014-09-03, 03:17:05,VALID,917.83,VALID,0,VALID,95.5748,VALID,0,VALID,17.9119,VALID,163,VALID,0.00195313,
2014-09-03, 03:18:05,VALID,917.837,VALID,0,VALID,95.6129,VALID,0,VALID,17.8911,VALID,173,VALID,0,
2014-09-03, 03:19:05,VALID,917.846,VALID,0,VALID,95.6357,VALID,0,VALID,17.8911,VALID,162,VALID,0,
2014-09-03, 03:20:05,VALID,917.856,VALID,0,VALID,95.6434,VALID,0,VALID,17.8521,VALID,166,VALID,0.451172,
2014-09-03, 03:21:05,VALID,917.841,VALID,0,VALID,95.651,VALID,0,VALID,17.8326,VALID,162,VALID,0,
2014-09-03, 03:22:05,VALID,917.859,VALID,0,VALID,95.6357,VALID,0,VALID,17.8521,VALID,159,VALID,0,
2014-09-03, 03:23:05,VALID,917.828,VALID,0,VALID,95.6434,VALID,0,VALID,17.8535,VALID,160,VALID,0.389844,
2014-09-03, 03:24:05,VALID,917.835,VALID,0,VALID,95.5976,VALID,0,VALID,17.8521,VALID,160,VALID,0.308984,
2014-09-03, 03:25:05,VALID,917.853,VALID,0,VALID,95.4985,VALID,0,VALID,17.8521,VALID,155,VALID,0,
2014-09-03, 03:26:05,VALID,917.847,VALID,0,VALID,95.4071,VALID,0,VALID,17.8326,VALID,159,VALID,0,
2014-09-03, 03:27:05,VALID,917.865,VALID,0,VALID,95.3003,VALID,0,VALID,17.8521,VALID,161,VALID,0,
2014-09-03, 03:28:05,VALID,917.862,VALID,0,VALID,95.1783,VALID,0,VALID,17.8521,VALID,159,VALID,0,
2014-09-03, 03:29:05,VALID,917.866,VALID,0,VALID,95.003,VALID,0,VALID,17.873,VALID,163,VALID,0.0113281,
2014-09-03, 03:30:05,VALID,917.9,VALID,0,VALID,94.942,VALID,0,VALID,17.873,VALID,161,VALID,0.0476562,
2014-09-03, 03:31:05,VALID,917.871,VALID,0,VALID,94.8658,VALID,0,VALID,17.8716,VALID,155,VALID,0.4875,
2014-09-03, 03:32:05,VALID,917.892,VALID,0,VALID,94.7438,VALID,0,VALID,17.9106,VALID,153,VALID,0.0101562,
2014-09-03, 03:33:05,VALID,917.888,VALID,0,VALID,94.4084,VALID,0,VALID,17.9106,VALID,156,VALID,0,
2014-09-03, 03:34:05,VALID,917.88,VALID,0,VALID,94.2178,VALID,0,VALID,17.9301,VALID,157,VALID,0,
2014-09-03, 03:35:04,VALID,917.893,VALID,0,VALID,93.9815,VALID,0,VALID,17.9301,VALID,157,VALID,0,
2014-09-03, 03:36:04,VALID,917.872,VALID,0,VALID,93.8747,VALID,0,VALID,17.9301,VALID,149,VALID,0,
2014-09-03, 03:37:04,VALID,917.886,VALID,0,VALID,93.7604,VALID,0,VALID,17.8911,VALID,144,VALID,0,
2014-09-03, 03:38:04,VALID,917.91,VALID,0,VALID,93.7299,VALID,0,VALID,17.8716,VALID,144,VALID,0,
2014-09-03, 03:39:04,VALID,917.92,VALID,0,VALID,93.8138,VALID,0,VALID,17.8521,VALID,144,VALID,0,
2014-09-03, 03:40:04,VALID,917.922,VALID,0,VALID,93.9357,VALID,0,VALID,17.8326,VALID,144,VALID,0,
2014-09-03, 03:41:04,VALID,917.95,VALID,0,VALID,94.1339,VALID,0,VALID,17.8535,VALID,144,VALID,0,
2014-09-03, 03:42:04,VALID,917.949,VALID,0,VALID,94.355,VALID,0,VALID,17.834,VALID,144,VALID,0,
2014-09-03, 03:43:04,VALID,917.962,VALID,0,VALID,94.4999,VALID,0,VALID,17.834,VALID,145,VALID,0,
2014-09-03, 03:44:04,VALID,917.913,VALID,0,VALID,94.5761,VALID,0,VALID,17.8145,VALID,152,VALID,0,
2014-09-03, 03:45:04,VALID,917.959,VALID,0,VALID,94.6523,VALID,0,VALID,17.795,VALID,160,VALID,0.0195313,
2014-09-03, 03:46:04,VALID,917.94,VALID,0,VALID,94.7972,VALID,0,VALID,17.7741,VALID,152,VALID,0,
2014-09-03, 03:47:04,VALID,917.919,VALID,0,VALID,94.7896,VALID,0,VALID,17.756,VALID,165,VALID,0.000390625,
2014-09-03, 03:48:04,VALID,917.896,VALID,0,VALID,95.0488,VALID,0.107441,VALID,17.7547,VALID,150,VALID,0,
2014-09-03, 03:49:04,VALID,917.917,VALID,0,VALID,95.1936,VALID,0.107441,VALID,17.7547,VALID,142,VALID,0,
2014-09-03, 03:50:04,VALID,917.902,VALID,0,VALID,95.247,VALID,0,VALID,17.7338,VALID,149,VALID,0,
2014-09-03, 03:51:04,VALID,917.877,VALID,0,VALID,95.2698,VALID,0,VALID,17.7547,VALID,149,VALID,0,
2014-09-03, 03:52:04,VALID,917.886,VALID,0,VALID,95.2622,VALID,0.107441,VALID,17.7352,VALID,143,VALID,0.105469,
2014-09-03, 03:53:04,VALID,917.898,VALID,0,VALID,95.3613,VALID,0,VALID,17.7547,VALID,145,VALID,0,